Year,Month,Day,Hour,Minute,Value (Times are PST for temperature in C)
2013,07,24,00,00,14.30
2013,07,24,00,01,14.30
2013,07,24,00,02,14.30
2013,07,24,00,03,14.30
2013,07,24,00,04,14.30
2013,07,24,00,05,14.20
2013,07,24,00,06,14.20
2013,07,24,00,07,14.10
2013,07,24,00,08,14.10
2013,07,24,00,09,14.10
2013,07,24,00,10,14.00
2013,07,24,00,11,14.00
2013,07,24,00,12,13.90
2013,07,24,00,13,13.90
2013,07,24,00,14,13.80
2013,07,24,00,15,13.80
2013,07,24,00,16,13.80
2013,07,24,00,17,13.70
2013,07,24,00,18,13.70
2013,07,24,00,19,13.70
2013,07,24,00,20,13.60
2013,07,24,00,21,13.60
2013,07,24,00,22,13.60
2013,07,24,00,23,13.60
2013,07,24,00,24,13.50
2013,07,24,00,25,13.60
2013,07,24,00,26,13.50
2013,07,24,00,27,13.50
2013,07,24,00,28,13.50
2013,07,24,00,29,13.50
2013,07,24,00,30,13.50
2013,07,24,00,31,13.50
2013,07,24,00,32,13.50
2013,07,24,00,33,13.50
2013,07,24,00,34,13.50
2013,07,24,00,35,13.60
2013,07,24,00,36,13.60
2013,07,24,00,37,13.60
2013,07,24,00,38,13.60
2013,07,24,00,39,13.60
2013,07,24,00,40,13.70
2013,07,24,00,41,13.70
2013,07,24,00,42,13.70
2013,07,24,00,43,13.70
2013,07,24,00,44,13.70
2013,07,24,00,45,13.80
2013,07,24,00,46,13.80
2013,07,24,00,47,13.80
2013,07,24,00,48,13.80
2013,07,24,00,49,13.90
2013,07,24,00,50,13.90
2013,07,24,00,51,14.00
2013,07,24,00,52,14.00
2013,07,24,00,53,14.10
2013,07,24,00,54,14.10
2013,07,24,00,55,14.00
2013,07,24,00,56,14.00
2013,07,24,00,57,13.90
2013,07,24,00,58,13.90
2013,07,24,00,59,13.90
2013,07,24,01,00,13.80
2013,07,24,01,01,13.80
2013,07,24,01,02,13.80
2013,07,24,01,03,13.80
2013,07,24,01,04,13.80
2013,07,24,01,05,13.80
2013,07,24,01,06,13.70
2013,07,24,01,07,13.70
2013,07,24,01,08,13.70
2013,07,24,01,09,13.60
2013,07,24,01,10,13.60
2013,07,24,01,11,13.50
2013,07,24,01,12,13.50
2013,07,24,01,13,13.40
2013,07,24,01,14,13.40
2013,07,24,01,15,13.40
2013,07,24,01,16,13.40
2013,07,24,01,17,13.50
2013,07,24,01,18,13.50
2013,07,24,01,19,13.50
2013,07,24,01,20,13.50
2013,07,24,01,21,13.50
2013,07,24,01,22,13.40
2013,07,24,01,23,13.40
2013,07,24,01,24,13.40
2013,07,24,01,25,13.40
2013,07,24,01,26,13.40
2013,07,24,01,27,13.40
2013,07,24,01,28,13.40
2013,07,24,01,29,13.40
2013,07,24,01,30,13.40
2013,07,24,01,31,13.40
2013,07,24,01,32,13.40
2013,07,24,01,33,13.30
2013,07,24,01,34,13.30
2013,07,24,01,35,13.20
2013,07,24,01,36,13.20
2013,07,24,01,37,13.10
2013,07,24,01,38,13.10
2013,07,24,01,39,13.10
2013,07,24,01,40,13.10
2013,07,24,01,41,13.10
2013,07,24,01,42,13.20
2013,07,24,01,43,13.20
2013,07,24,01,44,13.20
2013,07,24,01,45,13.20
2013,07,24,01,46,13.30
2013,07,24,01,47,13.40
2013,07,24,01,48,13.40
2013,07,24,01,49,13.50
2013,07,24,01,50,13.60
2013,07,24,01,51,13.60
2013,07,24,01,52,13.60
2013,07,24,01,53,13.60
2013,07,24,01,54,13.70
2013,07,24,01,55,13.70
2013,07,24,01,56,13.70
2013,07,24,01,57,13.70
2013,07,24,01,58,13.70
2013,07,24,01,59,13.70
2013,07,24,02,00,13.70
2013,07,24,02,01,13.70
2013,07,24,02,02,13.80
2013,07,24,02,03,13.80
2013,07,24,02,04,13.80
2013,07,24,02,05,13.80
2013,07,24,02,06,13.80
2013,07,24,02,07,13.80
2013,07,24,02,08,13.80
2013,07,24,02,09,13.80
2013,07,24,02,10,13.80
2013,07,24,02,11,13.80
2013,07,24,02,12,13.80
2013,07,24,02,13,13.80
2013,07,24,02,14,13.80
2013,07,24,02,15,13.70
2013,07,24,02,16,13.70
2013,07,24,02,17,13.70
2013,07,24,02,18,13.70
2013,07,24,02,19,13.70
2013,07,24,02,20,13.60
2013,07,24,02,21,13.60
2013,07,24,02,22,13.60
2013,07,24,02,23,13.60
2013,07,24,02,24,13.60
2013,07,24,02,25,13.60
2013,07,24,02,26,13.60
2013,07,24,02,27,13.60
2013,07,24,02,28,13.60
2013,07,24,02,29,13.60
2013,07,24,02,30,13.60
2013,07,24,02,31,13.60
2013,07,24,02,32,13.60
2013,07,24,02,33,13.60
2013,07,24,02,34,13.70
2013,07,24,02,35,13.70
2013,07,24,02,36,13.70
2013,07,24,02,37,13.70
2013,07,24,02,38,13.70
2013,07,24,02,39,13.70
2013,07,24,02,40,13.70
2013,07,24,02,41,13.70
2013,07,24,02,42,13.70
2013,07,24,02,43,13.70
2013,07,24,02,44,13.70
2013,07,24,02,45,13.70
2013,07,24,02,46,13.70
2013,07,24,02,47,13.70
2013,07,24,02,48,13.70
2013,07,24,02,49,13.70
2013,07,24,02,50,13.70
2013,07,24,02,51,13.70
2013,07,24,02,52,13.70
2013,07,24,02,53,13.70
2013,07,24,02,54,13.70
2013,07,24,02,55,13.70
2013,07,24,02,56,13.70
2013,07,24,02,57,13.70
2013,07,24,02,58,13.70
2013,07,24,02,59,13.70
2013,07,24,03,00,13.70
2013,07,24,03,01,13.60
2013,07,24,03,02,13.60
2013,07,24,03,03,13.60
2013,07,24,03,04,13.70
2013,07,24,03,05,13.70
2013,07,24,03,06,13.60
2013,07,24,03,07,13.60
2013,07,24,03,08,13.60
2013,07,24,03,09,13.60
2013,07,24,03,10,13.60
2013,07,24,03,11,13.70
2013,07,24,03,12,13.70
2013,07,24,03,13,13.70
2013,07,24,03,14,13.70
2013,07,24,03,15,13.70
2013,07,24,03,16,13.70
2013,07,24,03,17,13.80
2013,07,24,03,18,13.80
2013,07,24,03,19,13.80
2013,07,24,03,20,13.80
2013,07,24,03,21,13.80
2013,07,24,03,22,13.80
2013,07,24,03,23,13.80
2013,07,24,03,24,13.80
2013,07,24,03,25,13.80
2013,07,24,03,26,13.80
2013,07,24,03,27,13.80
2013,07,24,03,28,13.80
2013,07,24,03,29,13.80
2013,07,24,03,30,13.80
2013,07,24,03,31,13.90
2013,07,24,03,32,13.90
2013,07,24,03,33,13.90
2013,07,24,03,34,14.00
2013,07,24,03,35,14.00
2013,07,24,03,36,14.10
2013,07,24,03,37,14.10
2013,07,24,03,38,14.00
2013,07,24,03,39,14.00
2013,07,24,03,40,14.00
2013,07,24,03,41,14.00
2013,07,24,03,42,14.00
2013,07,24,03,43,14.00
2013,07,24,03,44,14.00
2013,07,24,03,45,14.00
2013,07,24,03,46,14.00
2013,07,24,03,47,13.90
2013,07,24,03,48,13.90
2013,07,24,03,49,13.90
2013,07,24,03,50,13.90
2013,07,24,03,51,13.90
2013,07,24,03,52,13.90
2013,07,24,03,53,13.90
2013,07,24,03,54,13.90
2013,07,24,03,55,13.90
2013,07,24,03,56,13.80
2013,07,24,03,57,13.80
2013,07,24,03,58,13.80
2013,07,24,03,59,13.80
2013,07,24,04,00,13.80
2013,07,24,04,01,13.80
2013,07,24,04,02,13.80
2013,07,24,04,03,13.80
2013,07,24,04,04,13.80
2013,07,24,04,05,13.80
2013,07,24,04,06,13.80
2013,07,24,04,07,13.80
2013,07,24,04,08,13.80
2013,07,24,04,09,13.80
2013,07,24,04,10,13.90
2013,07,24,04,11,13.90
2013,07,24,04,12,13.90
2013,07,24,04,13,13.90
2013,07,24,04,14,13.90
2013,07,24,04,15,13.90
2013,07,24,04,16,13.90
2013,07,24,04,17,13.90
2013,07,24,04,18,13.90
2013,07,24,04,19,13.90
2013,07,24,04,20,13.90
2013,07,24,04,21,13.90
2013,07,24,04,22,13.90
2013,07,24,04,23,13.90
2013,07,24,04,24,13.90
2013,07,24,04,25,13.90
2013,07,24,04,26,13.90
2013,07,24,04,27,13.90
2013,07,24,04,28,13.90
2013,07,24,04,29,13.90
2013,07,24,04,30,13.90
2013,07,24,04,31,13.90
2013,07,24,04,32,13.90
2013,07,24,04,33,13.90
2013,07,24,04,34,14.00
2013,07,24,04,35,14.00
2013,07,24,04,36,14.00
2013,07,24,04,37,14.00
2013,07,24,04,38,14.00
2013,07,24,04,39,14.00
2013,07,24,04,40,14.00
2013,07,24,04,41,14.00
2013,07,24,04,42,14.00
2013,07,24,04,43,14.00
2013,07,24,04,44,14.00
2013,07,24,04,45,14.00
2013,07,24,04,46,14.10
2013,07,24,04,47,14.10
2013,07,24,04,48,14.10
2013,07,24,04,49,14.10
2013,07,24,04,50,14.10
2013,07,24,04,51,14.10
2013,07,24,04,52,14.10
2013,07,24,04,53,14.10
2013,07,24,04,54,14.10
2013,07,24,04,55,14.10
2013,07,24,04,56,14.10
2013,07,24,04,57,14.10
2013,07,24,04,58,14.10
2013,07,24,04,59,14.10
2013,07,24,05,00,14.10
2013,07,24,05,01,14.00
2013,07,24,05,02,14.00
2013,07,24,05,03,14.00
2013,07,24,05,04,14.00
2013,07,24,05,05,13.90
2013,07,24,05,06,13.90
2013,07,24,05,07,13.90
2013,07,24,05,08,13.90
2013,07,24,05,09,13.90
2013,07,24,05,10,13.80
2013,07,24,05,11,13.80
2013,07,24,05,12,13.90
2013,07,24,05,13,13.90
2013,07,24,05,14,13.90
2013,07,24,05,15,13.90
2013,07,24,05,16,13.90
2013,07,24,05,17,13.90
2013,07,24,05,18,13.90
2013,07,24,05,19,13.90
2013,07,24,05,20,13.90
2013,07,24,05,21,13.90
2013,07,24,05,22,13.90
2013,07,24,05,23,13.90
2013,07,24,05,24,13.90
2013,07,24,05,25,13.90
2013,07,24,05,26,13.90
2013,07,24,05,27,14.00
2013,07,24,05,28,14.00
2013,07,24,05,29,14.00
2013,07,24,05,30,14.10
2013,07,24,05,31,14.10
2013,07,24,05,32,14.10
2013,07,24,05,33,14.10
2013,07,24,05,34,14.10
2013,07,24,05,35,14.10
2013,07,24,05,36,14.10
2013,07,24,05,37,14.20
2013,07,24,05,38,14.20
2013,07,24,05,39,14.20
2013,07,24,05,40,14.20
2013,07,24,05,41,14.20
2013,07,24,05,42,14.20
2013,07,24,05,43,14.20
2013,07,24,05,44,14.20
2013,07,24,05,45,14.20
2013,07,24,05,46,14.20
2013,07,24,05,47,14.20
2013,07,24,05,48,14.20
2013,07,24,05,49,14.20
2013,07,24,05,50,14.20
2013,07,24,05,51,14.20
2013,07,24,05,52,14.20
2013,07,24,05,53,14.10
2013,07,24,05,54,14.10
2013,07,24,05,55,14.10
2013,07,24,05,56,14.10
2013,07,24,05,57,14.00
2013,07,24,05,58,14.00
2013,07,24,05,59,13.90
2013,07,24,06,00,13.90
2013,07,24,06,01,13.90
2013,07,24,06,02,13.90
2013,07,24,06,03,13.90
2013,07,24,06,04,13.90
2013,07,24,06,05,13.90
2013,07,24,06,06,13.90
2013,07,24,06,07,13.90
2013,07,24,06,08,13.90
2013,07,24,06,09,13.90
2013,07,24,06,10,13.90
2013,07,24,06,11,13.90
2013,07,24,06,12,13.90
2013,07,24,06,13,13.90
2013,07,24,06,14,13.90
2013,07,24,06,15,13.90
2013,07,24,06,16,13.90
2013,07,24,06,17,13.90
2013,07,24,06,18,13.90
2013,07,24,06,19,13.90
2013,07,24,06,20,13.90
2013,07,24,06,21,13.90
2013,07,24,06,22,14.00
2013,07,24,06,23,14.00
2013,07,24,06,24,14.00
2013,07,24,06,25,14.00
2013,07,24,06,26,14.00
2013,07,24,06,27,14.00
2013,07,24,06,28,14.00
2013,07,24,06,29,14.00
2013,07,24,06,30,14.00
2013,07,24,06,31,14.00
2013,07,24,06,32,14.10
2013,07,24,06,33,14.10
2013,07,24,06,34,14.10
2013,07,24,06,35,14.10
2013,07,24,06,36,14.10
2013,07,24,06,37,14.10
2013,07,24,06,38,14.00
2013,07,24,06,39,14.00
2013,07,24,06,40,13.90
2013,07,24,06,41,13.90
2013,07,24,06,42,13.90
2013,07,24,06,43,13.90
2013,07,24,06,44,14.00
2013,07,24,06,45,14.00
2013,07,24,06,46,14.00
2013,07,24,06,47,14.00
2013,07,24,06,48,14.10
2013,07,24,06,49,14.10
2013,07,24,06,50,14.10
2013,07,24,06,51,14.20
2013,07,24,06,52,14.20
2013,07,24,06,53,14.30
2013,07,24,06,54,14.30
2013,07,24,06,55,14.30
2013,07,24,06,56,14.30
2013,07,24,06,57,14.40
2013,07,24,06,58,14.40
2013,07,24,06,59,14.40
2013,07,24,07,00,14.40
2013,07,24,07,01,14.40
2013,07,24,07,02,14.40
2013,07,24,07,03,14.50
2013,07,24,07,04,14.50
2013,07,24,07,05,14.60
2013,07,24,07,06,14.60
2013,07,24,07,07,14.60
2013,07,24,07,08,14.70
2013,07,24,07,09,14.70
2013,07,24,07,10,14.70
2013,07,24,07,11,14.80
2013,07,24,07,12,14.80
2013,07,24,07,13,14.80
2013,07,24,07,14,14.80
2013,07,24,07,15,14.90
2013,07,24,07,16,14.90
2013,07,24,07,17,15.00
2013,07,24,07,18,15.10
2013,07,24,07,19,15.10
2013,07,24,07,20,15.20
2013,07,24,07,21,15.30
2013,07,24,07,22,15.30
2013,07,24,07,23,15.40
2013,07,24,07,24,15.50
2013,07,24,07,25,15.50
2013,07,24,07,26,15.60
2013,07,24,07,27,15.60
2013,07,24,07,28,15.70
2013,07,24,07,29,15.70
2013,07,24,07,30,15.80
2013,07,24,07,31,15.80
2013,07,24,07,32,15.80
2013,07,24,07,33,15.80
2013,07,24,07,34,15.90
2013,07,24,07,35,15.90
2013,07,24,07,36,15.90
2013,07,24,07,37,15.90
2013,07,24,07,38,16.00
2013,07,24,07,39,16.00
2013,07,24,07,40,16.10
2013,07,24,07,41,16.10
2013,07,24,07,42,16.10
2013,07,24,07,43,16.10
2013,07,24,07,44,16.10
2013,07,24,07,45,16.10
2013,07,24,07,46,16.10
2013,07,24,07,47,16.10
2013,07,24,07,48,16.10
2013,07,24,07,49,16.10
2013,07,24,07,50,16.10
2013,07,24,07,51,16.10
2013,07,24,07,52,16.20
2013,07,24,07,53,16.20
2013,07,24,07,54,16.20
2013,07,24,07,55,16.20
2013,07,24,07,56,16.20
2013,07,24,07,57,16.30
2013,07,24,07,58,16.30
2013,07,24,07,59,16.30
2013,07,24,08,00,16.40
2013,07,24,08,01,16.30
2013,07,24,08,02,16.30
2013,07,24,08,03,16.30
2013,07,24,08,04,16.30
2013,07,24,08,05,16.30
2013,07,24,08,06,16.30
2013,07,24,08,07,16.40
2013,07,24,08,08,16.40
2013,07,24,08,09,16.50
2013,07,24,08,10,16.60
2013,07,24,08,11,16.70
2013,07,24,08,12,16.70
2013,07,24,08,13,16.80
2013,07,24,08,14,16.80
2013,07,24,08,15,16.90
2013,07,24,08,16,16.90
2013,07,24,08,17,17.00
2013,07,24,08,18,17.00
2013,07,24,08,19,17.10
2013,07,24,08,20,17.10
2013,07,24,08,21,17.10
2013,07,24,08,22,17.10
2013,07,24,08,23,17.10
2013,07,24,08,24,17.10
2013,07,24,08,25,17.10
2013,07,24,08,26,17.10
2013,07,24,08,27,17.10
2013,07,24,08,28,17.10
2013,07,24,08,29,17.10
2013,07,24,08,30,17.20
2013,07,24,08,31,17.20
2013,07,24,08,32,17.30
2013,07,24,08,33,17.30
2013,07,24,08,34,17.40
2013,07,24,08,35,17.40
2013,07,24,08,36,17.50
2013,07,24,08,37,17.50
2013,07,24,08,38,17.60
2013,07,24,08,39,17.60
2013,07,24,08,40,17.70
2013,07,24,08,41,17.70
2013,07,24,08,42,17.70
2013,07,24,08,43,17.80
2013,07,24,08,44,17.80
2013,07,24,08,45,17.80
2013,07,24,08,46,17.90
2013,07,24,08,47,17.90
2013,07,24,08,48,18.00
2013,07,24,08,49,18.10
2013,07,24,08,50,18.10
2013,07,24,08,51,18.10
2013,07,24,08,52,18.20
2013,07,24,08,53,18.20
2013,07,24,08,54,18.20
2013,07,24,08,55,18.20
2013,07,24,08,56,18.20
2013,07,24,08,57,18.30
2013,07,24,08,58,18.30
2013,07,24,08,59,18.30
2013,07,24,09,00,18.30
2013,07,24,09,01,18.40
2013,07,24,09,02,18.40
2013,07,24,09,03,18.50
2013,07,24,09,04,18.50
2013,07,24,09,05,18.60
2013,07,24,09,06,18.60
2013,07,24,09,07,18.70
2013,07,24,09,08,18.70
2013,07,24,09,09,18.70
2013,07,24,09,10,18.80
2013,07,24,09,11,18.80
2013,07,24,09,12,18.90
2013,07,24,09,13,18.90
2013,07,24,09,14,18.90
2013,07,24,09,15,18.90
2013,07,24,09,16,18.90
2013,07,24,09,17,18.90
2013,07,24,09,18,18.90
2013,07,24,09,19,18.90
2013,07,24,09,20,18.90
2013,07,24,09,21,19.00
2013,07,24,09,22,19.00
2013,07,24,09,23,19.10
2013,07,24,09,24,19.10
2013,07,24,09,25,19.10
2013,07,24,09,26,19.20
2013,07,24,09,27,19.20
2013,07,24,09,28,19.20
2013,07,24,09,29,19.20
2013,07,24,09,30,19.20
2013,07,24,09,31,19.20
2013,07,24,09,32,19.20
2013,07,24,09,33,19.30
2013,07,24,09,34,19.30
2013,07,24,09,35,19.30
2013,07,24,09,36,19.30
2013,07,24,09,37,19.20
2013,07,24,09,38,19.20
2013,07,24,09,39,19.30
2013,07,24,09,40,19.30
2013,07,24,09,41,19.40
2013,07,24,09,42,19.40
2013,07,24,09,43,19.40
2013,07,24,09,44,19.40
2013,07,24,09,45,19.40
2013,07,24,09,46,19.50
2013,07,24,09,47,19.50
2013,07,24,09,48,19.50
2013,07,24,09,49,19.60
2013,07,24,09,50,19.60
2013,07,24,09,51,19.60
2013,07,24,09,52,19.60
2013,07,24,09,53,19.60
2013,07,24,09,54,19.60
2013,07,24,09,55,19.60
2013,07,24,09,56,19.60
2013,07,24,09,57,19.60
2013,07,24,09,58,19.60
2013,07,24,09,59,19.70
2013,07,24,10,00,19.70
2013,07,24,10,01,19.70
2013,07,24,10,02,19.70
2013,07,24,10,03,19.70
2013,07,24,10,04,19.70
2013,07,24,10,05,19.70
2013,07,24,10,06,19.70
2013,07,24,10,07,19.70
2013,07,24,10,08,19.60
2013,07,24,10,09,19.60
2013,07,24,10,10,19.60
2013,07,24,10,11,19.60
2013,07,24,10,12,19.60
2013,07,24,10,13,19.60
2013,07,24,10,14,19.50
2013,07,24,10,15,19.50
2013,07,24,10,16,19.50
2013,07,24,10,17,19.50
2013,07,24,10,18,19.50
2013,07,24,10,19,19.40
2013,07,24,10,20,19.40
2013,07,24,10,21,19.40
2013,07,24,10,22,19.40
2013,07,24,10,23,19.40
2013,07,24,10,24,19.40
2013,07,24,10,25,19.40
2013,07,24,10,26,19.40
2013,07,24,10,27,19.40
2013,07,24,10,28,19.30
2013,07,24,10,29,19.30
2013,07,24,10,30,19.30
2013,07,24,10,31,19.30
2013,07,24,10,32,19.40
2013,07,24,10,33,19.40
2013,07,24,10,34,19.50
2013,07,24,10,35,19.50
2013,07,24,10,36,19.50
2013,07,24,10,37,19.60
2013,07,24,10,38,19.60
2013,07,24,10,39,19.70
2013,07,24,10,40,19.80
2013,07,24,10,41,19.80
2013,07,24,10,42,19.90
2013,07,24,10,43,19.90
2013,07,24,10,44,20.00
2013,07,24,10,45,20.00
2013,07,24,10,46,20.10
2013,07,24,10,47,20.20
2013,07,24,10,48,20.20
2013,07,24,10,49,20.20
2013,07,24,10,50,20.30
2013,07,24,10,51,20.30
2013,07,24,10,52,20.40
2013,07,24,10,53,20.50
2013,07,24,10,54,20.50
2013,07,24,10,55,20.60
2013,07,24,10,56,20.70
2013,07,24,10,57,20.80
2013,07,24,10,58,20.80
2013,07,24,10,59,20.90
2013,07,24,11,00,20.90
2013,07,24,11,01,21.00
2013,07,24,11,02,21.00
2013,07,24,11,03,21.10
2013,07,24,11,04,21.20
2013,07,24,11,05,21.30
2013,07,24,11,06,21.30
2013,07,24,11,07,21.40
2013,07,24,11,08,21.50
2013,07,24,11,09,21.60
2013,07,24,11,10,21.80
2013,07,24,11,11,21.90
2013,07,24,11,12,22.00
2013,07,24,11,13,22.10
2013,07,24,11,14,22.10
2013,07,24,11,15,22.20
2013,07,24,11,16,22.30
2013,07,24,11,17,22.30
2013,07,24,11,18,22.40
2013,07,24,11,19,22.50
2013,07,24,11,20,22.70
2013,07,24,11,21,22.80
2013,07,24,11,22,22.90
2013,07,24,11,23,23.00
2013,07,24,11,24,23.10
2013,07,24,11,25,23.30
2013,07,24,11,26,23.40
2013,07,24,11,27,23.50
2013,07,24,11,28,23.60
2013,07,24,11,29,23.70
2013,07,24,11,30,23.80
2013,07,24,11,31,23.80
2013,07,24,11,32,23.90
2013,07,24,11,33,24.00
2013,07,24,11,34,24.10
2013,07,24,11,35,24.10
2013,07,24,11,36,24.00
2013,07,24,11,37,24.00
2013,07,24,11,38,23.90
2013,07,24,11,39,23.90
2013,07,24,11,40,23.80
2013,07,24,11,41,23.80
2013,07,24,11,42,23.80
2013,07,24,11,43,23.80
2013,07,24,11,44,23.80
2013,07,24,11,45,23.70
2013,07,24,11,46,23.70
2013,07,24,11,47,23.60
2013,07,24,11,48,23.50
2013,07,24,11,49,23.40
2013,07,24,11,50,23.40
2013,07,24,11,51,23.30
2013,07,24,11,52,23.30
2013,07,24,11,53,23.20
2013,07,24,11,54,23.10
2013,07,24,11,55,23.00
2013,07,24,11,56,22.90
2013,07,24,11,57,22.90
2013,07,24,11,58,22.80
2013,07,24,11,59,22.80
2013,07,24,12,00,22.80
2013,07,24,12,01,22.80
2013,07,24,12,02,22.90
2013,07,24,12,03,22.90
2013,07,24,12,04,22.90
2013,07,24,12,05,22.90
2013,07,24,12,06,22.90
2013,07,24,12,07,22.80
2013,07,24,12,08,22.80
2013,07,24,12,09,22.80
2013,07,24,12,10,22.90
2013,07,24,12,11,23.00
2013,07,24,12,12,23.10
2013,07,24,12,13,23.20
2013,07,24,12,14,23.30
2013,07,24,12,15,23.40
2013,07,24,12,16,23.50
2013,07,24,12,17,23.60
2013,07,24,12,18,23.70
2013,07,24,12,19,23.80
2013,07,24,12,20,23.90
2013,07,24,12,21,23.90
2013,07,24,12,22,24.00
2013,07,24,12,23,24.00
2013,07,24,12,24,24.10
2013,07,24,12,25,24.10
2013,07,24,12,26,24.20
2013,07,24,12,27,24.30
2013,07,24,12,28,24.40
2013,07,24,12,29,24.40
2013,07,24,12,30,24.40
2013,07,24,12,31,24.40
2013,07,24,12,32,24.40
2013,07,24,12,33,24.50
2013,07,24,12,34,24.50
2013,07,24,12,35,24.40
2013,07,24,12,36,24.40
2013,07,24,12,37,24.40
2013,07,24,12,38,24.30
2013,07,24,12,39,24.20
2013,07,24,12,40,24.10
2013,07,24,12,41,24.10
2013,07,24,12,42,24.10
2013,07,24,12,43,24.20
2013,07,24,12,44,24.20
2013,07,24,12,45,24.30
2013,07,24,12,46,24.30
2013,07,24,12,47,24.30
2013,07,24,12,48,24.30
2013,07,24,12,49,24.30
2013,07,24,12,50,24.30
2013,07,24,12,51,24.20
2013,07,24,12,52,24.00
2013,07,24,12,53,23.90
2013,07,24,12,54,23.80
2013,07,24,12,55,23.80
2013,07,24,12,56,23.80
2013,07,24,12,57,23.80
2013,07,24,12,58,23.70
2013,07,24,12,59,23.70
2013,07,24,13,00,23.80
2013,07,24,13,01,23.80
2013,07,24,13,02,23.90
2013,07,24,13,03,23.90
2013,07,24,13,04,23.90
2013,07,24,13,05,23.90
2013,07,24,13,06,24.00
2013,07,24,13,07,24.00
2013,07,24,13,08,24.10
2013,07,24,13,09,24.10
2013,07,24,13,10,24.20
2013,07,24,13,11,24.20
2013,07,24,13,12,24.30
2013,07,24,13,13,24.30
2013,07,24,13,14,24.40
2013,07,24,13,15,24.50
2013,07,24,13,16,24.60
2013,07,24,13,17,24.60
2013,07,24,13,18,24.70
2013,07,24,13,19,24.60
2013,07,24,13,20,24.60
2013,07,24,13,21,24.50
2013,07,24,13,22,24.50
2013,07,24,13,23,24.50
2013,07,24,13,24,24.40
2013,07,24,13,25,24.40
2013,07,24,13,26,24.30
2013,07,24,13,27,24.30
2013,07,24,13,28,24.30
2013,07,24,13,29,24.30
2013,07,24,13,30,24.30
2013,07,24,13,31,24.20
2013,07,24,13,32,24.00
2013,07,24,13,33,24.00
2013,07,24,13,34,24.00
2013,07,24,13,35,24.00
2013,07,24,13,36,24.00
2013,07,24,13,37,23.90
2013,07,24,13,38,23.90
2013,07,24,13,39,23.80
2013,07,24,13,40,23.70
2013,07,24,13,41,23.60
2013,07,24,13,42,23.60
2013,07,24,13,43,23.60
2013,07,24,13,44,23.50
2013,07,24,13,45,23.50
2013,07,24,13,46,23.50
2013,07,24,13,47,23.50
2013,07,24,13,48,23.40
2013,07,24,13,49,23.50
2013,07,24,13,50,23.50
2013,07,24,13,51,23.60
2013,07,24,13,52,23.60
2013,07,24,13,53,23.70
2013,07,24,13,54,23.80
2013,07,24,13,55,23.80
2013,07,24,13,56,23.90
2013,07,24,13,57,24.00
2013,07,24,13,58,24.10
2013,07,24,13,59,24.20
2013,07,24,14,00,24.30
2013,07,24,14,01,24.40
2013,07,24,14,02,24.40
2013,07,24,14,03,24.40
2013,07,24,14,04,24.50
2013,07,24,14,05,24.50
2013,07,24,14,06,24.50
2013,07,24,14,07,24.40
2013,07,24,14,08,24.40
2013,07,24,14,09,24.30
2013,07,24,14,10,24.40
2013,07,24,14,11,24.40
2013,07,24,14,12,24.40
2013,07,24,14,13,24.40
2013,07,24,14,14,24.40
2013,07,24,14,15,24.30
2013,07,24,14,16,24.30
2013,07,24,14,17,24.20
2013,07,24,14,18,24.20
2013,07,24,14,19,24.10
2013,07,24,14,20,24.10
2013,07,24,14,21,24.10
2013,07,24,14,22,24.20
2013,07,24,14,23,24.30
2013,07,24,14,24,24.50
2013,07,24,14,25,24.60
2013,07,24,14,26,24.80
2013,07,24,14,27,24.90
2013,07,24,14,28,25.00
2013,07,24,14,29,25.10
2013,07,24,14,30,25.20
2013,07,24,14,31,25.30
2013,07,24,14,32,25.30
2013,07,24,14,33,25.30
2013,07,24,14,34,25.30
2013,07,24,14,35,25.30
2013,07,24,14,36,25.20
2013,07,24,14,37,25.10
2013,07,24,14,38,25.00
2013,07,24,14,39,24.80
2013,07,24,14,40,24.60
2013,07,24,14,41,24.50
2013,07,24,14,42,24.40
2013,07,24,14,43,24.40
2013,07,24,14,44,24.40
2013,07,24,14,45,24.30
2013,07,24,14,46,24.10
2013,07,24,14,47,24.00
2013,07,24,14,48,23.80
2013,07,24,14,49,23.70
2013,07,24,14,50,23.60
2013,07,24,14,51,23.50
2013,07,24,14,52,23.40
2013,07,24,14,53,23.30
2013,07,24,14,54,23.30
2013,07,24,14,55,23.20
2013,07,24,14,56,23.20
2013,07,24,14,57,23.20
2013,07,24,14,58,23.20
2013,07,24,14,59,23.20
2013,07,24,15,00,23.30
2013,07,24,15,01,23.30
2013,07,24,15,02,23.20
2013,07,24,15,03,23.20
2013,07,24,15,04,23.30
2013,07,24,15,05,23.30
2013,07,24,15,06,23.40
2013,07,24,15,07,23.40
2013,07,24,15,08,23.50
2013,07,24,15,09,23.50
2013,07,24,15,10,23.70
2013,07,24,15,11,23.80
2013,07,24,15,12,23.90
2013,07,24,15,13,23.90
2013,07,24,15,14,23.90
2013,07,24,15,15,23.90
2013,07,24,15,16,23.80
2013,07,24,15,17,23.80
2013,07,24,15,18,23.80
2013,07,24,15,19,23.90
2013,07,24,15,20,24.00
2013,07,24,15,21,24.00
2013,07,24,15,22,24.10
2013,07,24,15,23,24.10
2013,07,24,15,24,24.20
2013,07,24,15,25,24.20
2013,07,24,15,26,24.20
2013,07,24,15,27,24.10
2013,07,24,15,28,24.20
2013,07,24,15,29,24.20
2013,07,24,15,30,24.20
2013,07,24,15,31,24.30
2013,07,24,15,32,24.40
2013,07,24,15,33,24.40
2013,07,24,15,34,24.50
2013,07,24,15,35,24.50
2013,07,24,15,36,24.50
2013,07,24,15,37,24.60
2013,07,24,15,38,24.60
2013,07,24,15,39,24.60
2013,07,24,15,40,24.70
2013,07,24,15,41,24.70
2013,07,24,15,42,24.70
2013,07,24,15,43,24.70
2013,07,24,15,44,24.80
2013,07,24,15,45,24.80
2013,07,24,15,46,24.80
2013,07,24,15,47,24.80
2013,07,24,15,48,24.80
2013,07,24,15,49,24.90
2013,07,24,15,50,24.90
2013,07,24,15,51,25.00
2013,07,24,15,52,25.00
2013,07,24,15,53,24.90
2013,07,24,15,54,25.00
2013,07,24,15,55,25.10
2013,07,24,15,56,25.20
2013,07,24,15,57,25.20
2013,07,24,15,58,25.20
2013,07,24,15,59,25.20
2013,07,24,16,00,25.20
2013,07,24,16,01,25.20
2013,07,24,16,02,25.10
2013,07,24,16,03,25.10
2013,07,24,16,04,25.10
2013,07,24,16,05,25.20
2013,07,24,16,06,25.20
2013,07,24,16,07,25.30
2013,07,24,16,08,25.40
2013,07,24,16,09,25.40
2013,07,24,16,10,25.50
2013,07,24,16,11,25.60
2013,07,24,16,12,25.60
2013,07,24,16,13,25.70
2013,07,24,16,14,25.80
2013,07,24,16,15,25.80
2013,07,24,16,16,25.90
2013,07,24,16,17,25.90
2013,07,24,16,18,26.00
2013,07,24,16,19,26.00
2013,07,24,16,20,26.00
2013,07,24,16,21,25.90
2013,07,24,16,22,25.90
2013,07,24,16,23,25.90
2013,07,24,16,24,25.90
2013,07,24,16,25,25.80
2013,07,24,16,26,25.70
2013,07,24,16,27,25.50
2013,07,24,16,28,25.40
2013,07,24,16,29,25.30
2013,07,24,16,30,25.20
2013,07,24,16,31,25.10
2013,07,24,16,32,25.00
2013,07,24,16,33,25.00
2013,07,24,16,34,25.00
2013,07,24,16,35,25.00
2013,07,24,16,36,25.00
2013,07,24,16,37,24.90
2013,07,24,16,38,24.90
2013,07,24,16,39,24.80
2013,07,24,16,40,24.70
2013,07,24,16,41,24.60
2013,07,24,16,42,24.50
2013,07,24,16,43,24.40
2013,07,24,16,44,24.40
2013,07,24,16,45,24.40
2013,07,24,16,46,24.40
2013,07,24,16,47,24.30
2013,07,24,16,48,24.30
2013,07,24,16,49,24.20
2013,07,24,16,50,24.20
2013,07,24,16,51,24.20
2013,07,24,16,52,24.20
2013,07,24,16,53,24.10
2013,07,24,16,54,24.00
2013,07,24,16,55,24.00
2013,07,24,16,56,23.90
2013,07,24,16,57,23.90
2013,07,24,16,58,23.90
2013,07,24,16,59,23.90
2013,07,24,17,00,23.80
2013,07,24,17,01,23.80
2013,07,24,17,02,23.80
2013,07,24,17,03,23.80
2013,07,24,17,04,23.80
2013,07,24,17,05,23.70
2013,07,24,17,06,23.60
2013,07,24,17,07,23.60
2013,07,24,17,08,23.50
2013,07,24,17,09,23.40
2013,07,24,17,10,23.40
2013,07,24,17,11,23.30
2013,07,24,17,12,23.40
2013,07,24,17,13,23.40
2013,07,24,17,14,23.30
2013,07,24,17,15,23.30
2013,07,24,17,16,23.30
2013,07,24,17,17,23.20
2013,07,24,17,18,23.20
2013,07,24,17,19,23.20